SKYNET 5D

Last updated on Tue Sep 22 2026 00:03:12 GMT+0000 (Coordinated Universal Time)

1 39034U 12075A 26264.57079772 .00000096 00000+0 00000+0 0 9991 2 39034 0.0717 353.1648 0003881 192.0438 73.4864 1.00270974 50123
UTC large
Height (km)
Speed (km/s)
/
Latitude / Longitude
Inclination (degrees)
Orbital Period (minutes)
Azimuth
Elevation
Range (km)
Doppler Factor

Next 0 passes for location: London (51.5072 / 0.1276)

No passes found over London.
SKYNET 5D